TimeCDT,TemperatureF,Dew PointF,Humidity,Sea Level PressureIn,VisibilityMPH,Wind Direction,Wind SpeedMPH,Gust SpeedMPH,PrecipitationIn,Events,Conditions,WindDirDegrees,DateUTC
12:15 AM,68.0,62.6,83,29.96,10.0,North,12.7,17.3,N/A,,Clear,360,2013-09-21 05:15:00
12:35 AM,68.0,60.8,78,29.96,10.0,North,11.5,-,N/A,,Clear,10,2013-09-21 05:35:00
12:55 AM,68.0,60.8,78,29.97,10.0,North,12.7,18.4,N/A,,Clear,10,2013-09-21 05:55:00
1:15 AM,68.0,59.0,73,29.97,10.0,North,10.4,-,N/A,,Scattered Clouds,10,2013-09-21 06:15:00
1:35 AM,68.0,59.0,73,29.96,10.0,North,10.4,-,N/A,,Scattered Clouds,10,2013-09-21 06:35:00
1:55 AM,68.0,57.2,68,29.96,10.0,North,13.8,17.3,N/A,,Mostly Cloudy,10,2013-09-21 06:55:00
2:15 AM,68.0,55.4,64,29.97,10.0,North,10.4,-,N/A,,Mostly Cloudy,10,2013-09-21 07:15:00
2:35 AM,66.2,55.4,68,29.96,10.0,North,11.5,-,N/A,,Overcast,360,2013-09-21 07:35:00
2:55 AM,66.2,55.4,68,29.97,10.0,North,11.5,19.6,N/A,,Overcast,360,2013-09-21 07:55:00
3:15 AM,66.2,55.4,68,29.97,10.0,North,13.8,18.4,N/A,,Overcast,10,2013-09-21 08:15:00
3:35 AM,66.2,55.4,68,29.97,10.0,North,12.7,-,N/A,,Overcast,10,2013-09-21 08:35:00
3:55 AM,66.2,55.4,68,29.96,10.0,North,11.5,17.3,N/A,,Overcast,10,2013-09-21 08:55:00
4:15 AM,64.4,55.4,73,29.96,10.0,North,10.4,-,N/A,,Mostly Cloudy,360,2013-09-21 09:15:00
4:35 AM,64.4,55.4,73,29.96,10.0,North,5.8,-,N/A,,Clear,360,2013-09-21 09:35:00
4:55 AM,64.4,57.2,77,29.97,10.0,North,8.1,-,N/A,,Clear,360,2013-09-21 09:55:00
5:15 AM,64.4,55.4,73,29.96,10.0,North,8.1,-,N/A,,Clear,360,2013-09-21 10:15:00
5:35 AM,64.4,55.4,73,29.97,10.0,North,8.1,-,N/A,,Clear,360,2013-09-21 10:35:00
5:55 AM,62.6,55.4,77,29.97,10.0,North,8.1,-,N/A,,Clear,360,2013-09-21 10:55:00
6:15 AM,62.6,55.4,77,29.97,10.0,North,8.1,-,N/A,,Clear,360,2013-09-21 11:15:00
6:35 AM,62.6,55.4,77,29.99,10.0,North,5.8,-,N/A,,Clear,360,2013-09-21 11:35:00
6:50 AM,62.6,55.4,77,29.99,10.0,North,8.1,-,N/A,,Overcast,350,2013-09-21 11:50:00
6:55 AM,62.6,55.4,77,29.99,10.0,North,8.1,-,N/A,,Clear,360,2013-09-21 11:55:00
7:50 AM,62.6,55.4,77,30.00,10.0,North,9.2,-,N/A,,Clear,350,2013-09-21 12:50:00
8:50 AM,66.2,51.8,60,30.01,10.0,North,13.8,19.6,N/A,,Clear,10,2013-09-21 13:50:00
11:50 AM,71.6,50.0,46,30.00,10.0,NNE,11.5,23.0,N/A,,Clear,20,2013-09-21 16:50:00
12:50 PM,77.0,42.8,29,29.99,10.0,North,1.2,20.7,N/A,,Clear,10,2013-09-21 17:50:00
1:54 PM,78.8,41.0,26,29.96,10.0,NNE,15.0,19.6,N/A,,Clear,30,2013-09-21 18:54:00
2:54 PM,80.6,41.0,24,29.93,10.0,North,16.1,25.3,N/A,,Clear,360,2013-09-21 19:54:00
3:57 PM,82.4,44.6,26,29.91,10.0,North,12.7,-,N/A,,Clear,10,2013-09-21 20:57:00
4:54 PM,80.6,44.6,28,29.90,10.0,North,4.6,-,N/A,,Clear,350,2013-09-21 21:54:00
5:50 PM,80.6,44.6,28,29.89,10.0,North,6.9,11.5,N/A,,Clear,10,2013-09-21 22:50:00
7:51 PM,75.2,44.6,34,29.89,10.0,North,5.8,-,N/A,,Clear,360,2013-09-22 00:51:00
9:15 PM,71.6,46.4,41,29.92,10.0,NNE,3.5,-,N/A,,Clear,20,2013-09-22 02:15:00
9:35 PM,69.8,46.4,43,29.92,10.0,NNE,3.5,-,N/A,,Clear,30,2013-09-22 02:35:00
9:55 PM,71.6,46.4,41,29.92,10.0,Calm,Calm,-,N/A,,Clear,0,2013-09-22 02:55:00
10:15 PM,71.6,46.4,41,29.92,10.0,Calm,Calm,-,N/A,,Clear,0,2013-09-22 03:15:00
10:35 PM,71.6,44.6,38,29.92,10.0,Calm,Calm,-,N/A,,Clear,0,2013-09-22 03:35:00
10:55 PM,71.6,44.6,38,29.92,10.0,Calm,Calm,-,N/A,,Clear,0,2013-09-22 03:55:00
11:15 PM,69.8,46.4,43,29.92,10.0,Calm,Calm,-,N/A,,Clear,0,2013-09-22 04:15:00
11:35 PM,69.8,46.4,43,29.92,10.0,Calm,Calm,-,N/A,,Clear,0,2013-09-22 04:35:00
11:55 PM,68.0,46.4,46,29.92,10.0,Calm,Calm,-,N/A,,Clear,0,2013-09-22 04:55:00